1506852000.96,47281,16.75,74300.3,10.17,-40.41,-40.85,0,*4A
1506852002.21,47282,16.69,74298.5,10.15,-39.03,-39.35,0,*46
1506852003.47,47283,16.69,74296.8,10.17,-37.81,-38.23,0,*47
1506852004.7,47284,16.69,74298.8,10.17,-39.47,-39.97,0,*4A
1506852005.95,47285,16.75,74302.3,10.17,-38.79,-39.23,0,*48
1506852007.18,47286,16.69,74302.5,10.17,-38.05,-38.49,0,*4D
1506852008.42,47287,16.69,74300.8,10.21,-37.57,-37.99,0,*43
1506852009.67,47288,16.75,74304.3,10.23,-36.91,-37.27,0,*40
1506852010.9,47289,16.69,74302.8,10.23,-36.31,-36.67,0,*4E
1506852012.16,47290,16.69,74300.5,10.27,-36.79,-37.15,0,*4A
1506852013.38,47291,16.75,74300.3,10.29,-36.79,-37.27,0,*44
1506852014.66,47292,16.69,74302.0,10.31,-36.25,-36.61,0,*44
1506852015.95,47293,16.75,74302.8,10.31,-36.91,-37.39,0,*46
1506852017.17,47294,16.69,74298.5,10.35,-38.55,-38.97,0,*48
1506852018.4,47295,16.69,74302.0,10.33,-37.57,-37.99,0,*43
1506852019.65,47296,16.69,74304.3,10.35,-37.69,-38.17,0,*42
1506852020.91,47297,16.75,74302.5,10.35,-38.85,-39.15,0,*4D
1506852022.13,47298,16.69,74306.5,10.35,-37.33,-37.75,0,*48
1506852023.41,47299,16.69,74298.8,10.35,-39.71,-40.21,0,*40
1506852024.67,47300,16.69,74298.5,10.35,-40.09,-40.65,0,*40
1506852025.9,47301,16.69,74294.8,10.33,-39.15,-39.65,0,*4A
1506852027.13,47302,16.69,74292.5,10.33,-38.73,-39.15,0,*4F
1506852028.35,47303,16.69,74296.0,10.35,-38.35,-39.09,0,*47
1506852029.55,47304,16.69,74292.3,10.33,-38.73,-39.09,0,*44
1506852030.8,47305,16.69,74298.0,10.35,-37.57,-38.11,0,*42
1506852032.09,47306,16.69,74292.0,10.35,-37.21,-37.81,0,*46
1506852033.33,47307,16.69,74290.5,10.35,-38.67,-38.73,0,*48
1506852034.62,47308,16.69,74292.3,10.37,-37.09,-37.63,0,*4C
1506852035.9,47309,16.69,74294.8,10.37,-37.93,-38.23,0,*45
1506852037.16,47310,16.69,74294.3,10.37,-37.75,-38.23,0,*45
1506852038.37,47311,16.69,74292.0,10.39,-37.33,-37.75,0,*44
1506852039.6,47312,16.69,74292.5,10.39,-37.09,-37.87,0,*43
1506852040.86,47313,16.69,74292.0,10.39,-38.11,-38.49,0,*49
1506852042.09,47314,16.69,74294.0,10.41,-37.57,-38.17,0,*47
1506852043.34,47315,16.69,74290.0,10.45,-38.35,-38.79,0,*41
1506852044.58,47316,16.69,74290.5,10.41,-38.79,-39.35,0,*47
1506852045.81,47317,16.69,74292.5,10.45,-39.09,-39.35,0,*44
1506852047.05,47318,16.69,74298.5,10.39,-39.59,-40.03,0,*4E
1506852048.31,47319,16.69,74298.0,10.39,-39.59,-39.97,0,*4C
1506852049.55,47320,16.69,74294.8,10.39,-38.43,-38.79,0,*4D
1506852050.75,47321,16.69,74294.8,10.39,-38.05,-38.43,0,*47
1506852052.02,47322,16.69,74294.5,10.39,-38.49,-38.91,0,*43
1506852053.23,47323,16.69,74294.0,10.39,-36.73,-37.15,0,*46
1506852054.51,47324,16.69,74294.5,10.41,-37.39,-37.81,0,*4C
1506852055.78,47325,16.69,74294.5,10.41,-37.39,-37.69,0,*4B
1506852057.03,47326,16.69,74296.0,10.45,-38.67,-39.09,0,*40
1506852058.32,47327,16.69,74298.5,10.41,-39.15,-39.59,0,*44
1506852059.55,47328,16.69,74292.8,10.41,-38.05,-38.35,0,*40
1506852060.83,47329,16.69,74292.0,10.45,-38.49,-38.91,0,*43
1506852062.06,47330,16.69,74294.5,10.45,-38.55,-38.97,0,*40
1506852063.31,47331,16.69,74294.5,10.41,-39.35,-39.59,0,*41
1506852064.59,47332,16.69,74298.8,10.45,-37.63,-37.99,0,*49
1506852065.84,47333,16.69,74292.8,10.45,-37.75,-38.11,0,*40
1506852067.1,47334,16.69,74294.3,10.45,-36.01,-36.25,0,*4C
1506852068.33,47335,16.69,74292.8,10.45,-36.19,-36.67,0,*42
1506852069.53,47336,16.69,74294.0,10.47,-35.89,-36.19,0,*40
1506852070.76,47337,16.69,74296.8,10.47,-36.79,-37.03,0,*47
1506852072.0,47338,16.69,74292.5,10.51,-36.97,-37.51,0,*48
1506852073.25,47339,16.69,74296.5,10.49,-37.15,-37.69,0,*40
1506852074.47,47340,16.69,74292.8,10.51,-36.19,-36.61,0,*43
1506852075.73,47341,16.69,74294.8,10.53,-36.49,-36.73,0,*46
1506852076.95,47342,16.69,74290.5,10.53,-37.03,-37.27,0,*4A
1506852078.21,47343,16.69,74290.5,10.51,-37.69,-37.93,0,*4A
1506852079.44,47344,16.69,74290.0,10.53,-36.73,-37.03,0,*4C
1506852080.69,47345,16.69,74294.0,10.55,-37.81,-38.11,0,*4B
1506852081.95,47346,16.69,74292.8,10.55,-37.93,-38.11,0,*4B
1506852083.15,47347,16.69,74294.8,10.55,-37.33,-37.75,0,*4D
1506852084.4,47348,16.69,74292.3,10.55,-36.49,-36.79,0,*43
1506852085.66,47349,16.69,74288.5,10.57,-37.21,-37.57,0,*42
1506852086.91,47350,16.69,74292.8,10.55,-37.93,-38.11,0,*4C
1506852088.19,47351,16.69,74288.0,10.57,-37.63,-37.93,0,*45
1506852089.44,47352,16.69,74288.0,10.57,-37.03,-37.39,0,*40
1506852090.71,47353,16.69,74292.5,10.57,-36.49,-36.79,0,*4B
1506852091.99,47354,16.69,74292.5,10.57,-38.11,-38.29,0,*44
1506852093.24,47355,16.69,74294.5,10.57,-36.79,-36.97,0,*4E
1506852094.46,47356,16.69,74290.5,10.59,-37.51,-38.05,0,*4D
1506852095.69,47357,16.69,74288.5,10.59,-37.75,-37.93,0,*4A
1506852096.94,47358,16.69,74288.5,10.59,-37.69,-37.93,0,*48
1506852098.15,47359,16.69,74294.3,10.59,-38.43,-38.55,0,*4B
1506852099.38,47360,16.69,74296.3,10.59,-38.11,-38.43,0,*41
1506852100.6,47361,16.69,74294.0,10.59,-37.33,-37.69,0,*48
1506852101.83,47362,16.69,74292.5,10.59,-39.29,-39.65,0,*4C
1506852103.08,47363,16.69,74294.8,10.59,-38.67,-38.91,0,*4C
1506852104.29,47364,16.69,74296.8,10.59,-38.05,-38.55,0,*47
1506852105.53,47365,16.69,74298.3,10.57,-38.97,-39.29,0,*49
1506852106.81,47366,16.69,74294.8,10.57,-37.63,-37.93,0,*41
1506852108.08,47367,16.69,74298.5,10.57,-38.11,-38.49,0,*42
1506852109.37,47368,16.69,74298.0,10.57,-37.39,-37.63,0,*4F
1506852110.61,47369,16.69,74298.0,10.57,-36.61,-36.85,0,*4B
1506852111.82,47370,16.69,74294.5,10.59,-38.73,-39.09,0,*4B
1506852113.05,47371,16.69,74298.5,10.59,-38.49,-38.85,0,*46
1506852114.28,47372,16.69,74298.0,10.57,-38.35,-38.55,0,*4D
1506852115.53,47373,16.69,74294.8,10.57,-37.63,-37.75,0,*4D
1506852116.76,47374,16.69,74298.0,10.57,-38.17,-38.55,0,*4B
1506852118.01,47375,16.69,74298.5,10.57,-39.53,-39.91,0,*42
1506852119.25,47376,16.69,74300.5,10.55,-37.81,-38.17,0,*4D
1506852120.5,47377,16.69,74298.8,10.57,-38.49,-38.73,0,*47
1506852121.72,47378,16.69,74298.8,10.57,-40.65,-41.03,0,*40
1506852122.98,47379,16.69,74298.3,10.55,-40.09,-40.29,0,*40
1506852124.23,47380,16.69,74302.3,10.55,-39.15,-39.53,0,*46
1506852125.52,47381,16.69,74298.0,10.53,-42.95,-43.55,0,*4E
1506852126.74,47382,16.69,74302.0,10.51,-43.21,-43.87,0,*4E
1506852127.97,47383,16.69,74298.0,10.47,-43.87,-44.21,0,*4F
1506852129.22,47384,16.69,74296.5,10.41,-43.35,-44.01,0,*45
1506852130.5,47385,16.69,74298.8,10.37,-41.67,-42.05,0,*42
1506852131.75,47386,16.69,74300.3,10.35,-39.29,-39.65,0,*4C
1506852132.95,47387,16.69,74300.0,10.33,-39.35,-39.85,0,*48
1506852134.2,47388,16.69,74306.3,10.33,-38.91,-39.29,0,*4E
1506852135.45,47389,16.69,74302.5,10.33,-37.69,-37.99,0,*42
1506852136.7,47390,16.69,74302.5,10.35,-37.57,-37.93,0,*4B
1506852137.96,47391,16.69,74302.5,10.37,-37.09,-36.97,0,*46
1506852139.19,47392,16.69,74302.0,10.39,-36.31,-36.79,0,*41
1506852140.41,47393,16.69,74300.5,10.41,-36.85,-37.27,0,*4A
1506852141.65,47394,16.69,74302.5,10.45,-36.67,-37.15,0,*44
1506852142.9,47395,16.69,74300.3,10.45,-37.21,-37.33,0,*42
1506852144.18,47396,16.69,74302.0,10.45,-37.93,-38.29,0,*4C
1506852145.39,47397,16.69,74304.0,10.47,-38.73,-39.09,0,*4D
1506852146.67,47398,16.69,74302.0,10.49,-38.11,-38.49,0,*4D
1506852147.9,47399,16.69,74298.8,10.45,-39.35,-39.65,0,*48
1506852149.1,47400,16.69,74294.0,10.47,-38.55,-38.97,0,*46
1506852150.38,47401,16.63,74292.0,10.45,-38.67,-38.91,0,*42
1506852151.62,47402,16.63,74292.5,10.45,-38.91,-39.35,0,*47
1506852152.87,47403,16.69,74298.3,10.45,-38.97,-39.29,0,*4D
1506852154.09,47404,16.69,74300.5,10.45,-38.55,-38.97,0,*40
1506852155.35,47405,16.69,74298.3,10.45,-37.99,-38.35,0,*46
1506852156.58,47406,16.69,74296.8,10.41,-37.87,-38.35,0,*4E
1506852157.84,47407,16.69,74300.3,10.47,-38.79,-39.15,0,*44
1506852159.12,47408,16.63,74300.5,10.45,-37.63,-37.99,0,*47
1506852160.33,47409,16.63,74296.5,10.47,-36.67,-36.97,0,*4E
1506852161.59,47410,16.63,74302.3,10.49,-35.83,-36.01,0,*4E
1506852162.87,47411,16.63,74298.0,10.49,-36.37,-36.79,0,*4C
1506852164.13,47412,16.69,74302.8,10.53,-36.73,-37.21,0,*48
1506852165.38,47413,16.69,74300.8,10.53,-35.95,-36.07,0,*47
1506852166.58,47414,16.69,74302.3,10.55,-36.43,-36.85,0,*44
1506852167.84,47415,16.69,74300.5,10.57,-36.97,-37.39,0,*48
1506852169.1,47416,16.69,74300.8,10.57,-36.85,-37.21,0,*41
1506852170.33,47417,16.63,74302.8,10.59,-37.51,-37.75,0,*47
1506852171.58,47418,16.63,74302.0,10.59,-37.09,-37.51,0,*43
1506852172.82,47419,16.63,74302.3,10.59,-36.73,-37.09,0,*43
1506852174.07,47420,16.69,74300.5,10.59,-35.83,-36.13,0,*4F
1506852175.32,47421,16.69,74300.5,10.61,-36.49,-36.73,0,*46
1506852176.6,47422,16.69,74302.8,10.61,-37.09,-37.63,0,*40
1506852177.84,47423,16.69,74304.0,10.63,-39.59,-39.85,0,*4E
1506852179.08,47424,16.63,74298.8,10.59,-39.85,-40.41,0,*47
1506852180.33,47425,16.63,74300.0,10.59,-42.19,-42.45,0,*49
1506852181.56,47426,16.63,74300.8,10.59,-40.03,-40.29,0,*4B
1506852182.81,47427,16.69,74304.3,10.57,-41.93,-42.51,0,*41
1506852184.03,47428,16.69,74302.5,10.51,-44.87,-45.61,0,*4C
1506852185.27,47429,16.63,74302.5,10.47,-44.73,-45.21,0,*45
1506852186.52,47430,16.69,74302.5,10.45,-42.45,-42.75,0,*4A
1506852187.74,47431,16.69,74306.3,10.39,-41.87,-42.63,0,*4A
1506852188.98,47432,16.63,74296.8,10.37,-42.25,-42.63,0,*4C
1506852190.23,47433,16.63,74294.8,10.35,-39.71,-39.85,0,*46
1506852191.46,47434,16.63,74292.0,10.35,-38.55,-38.85,0,*47
1506852192.69,47435,16.63,74288.3,10.35,-38.55,-39.09,0,*43
1506852193.94,47436,16.69,74290.3,10.35,-42.05,-42.63,0,*48
1506852195.16,47437,16.63,74286.0,10.33,-40.65,-41.23,0,*4C
1506852196.43,47438,16.63,74284.8,10.31,-40.41,-40.91,0,*4F
1506852197.66,47439,16.63,74290.3,10.31,-38.61,-38.97,0,*4A
1506852198.92,47440,16.63,74290.5,10.31,-37.57,-37.99,0,*4F
1506852200.16,47441,16.63,74290.8,10.33,-36.37,-36.79,0,*44
1506852201.45,47442,16.63,74288.5,10.35,-37.21,-37.81,0,*41
1506852202.73,47443,16.63,74288.8,10.37,-38.23,-38.67,0,*48
1506852204.01,47444,16.63,74288.5,10.37,-38.29,-38.67,0,*45
1506852205.28,47445,16.63,74284.5,10.37,-38.67,-39.23,0,*4F
1506852206.51,47446,16.63,74284.3,10.39,-38.11,-38.61,0,*44
1506852207.76,47447,16.63,74288.5,10.41,-37.63,-38.05,0,*42
1506852208.99,47448,16.63,74286.3,10.39,-37.27,-37.69,0,*47
1506852210.22,47449,16.63,74288.0,10.39,-38.43,-38.91,0,*43
1506852211.48,47450,16.63,74288.3,10.39,-37.63,-37.93,0,*4B
1506852212.73,47451,16.63,74288.5,10.41,-37.69,-38.05,0,*4F
1506852213.98,47452,16.63,74290.3,10.41,-37.45,-37.99,0,*48
1506852215.23,47453,16.63,74286.5,10.45,-38.11,-38.35,0,*4A
1506852216.52,47454,16.63,74288.8,10.45,-37.63,-37.99,0,*4E
1506852217.77,47455,16.63,74286.3,10.45,-38.35,-38.91,0,*44
1506852219.05,47456,16.63,74286.5,10.45,-38.49,-38.91,0,*4C
1506852220.3,47457,16.69,74288.5,10.45,-38.29,-38.73,0,*47
1506852221.55,47458,16.63,74288.5,10.45,-38.49,-38.97,0,*44
1506852222.8,47459,16.63,74288.3,10.45,-38.67,-38.97,0,*49
1506852224.03,47460,16.63,74290.3,10.47,-38.35,-38.79,0,*46
1506852225.23,47461,16.63,74290.8,10.47,-37.33,-37.75,0,*4D
1506852226.44,47462,16.63,74288.3,10.47,-36.67,-37.03,0,*4F
1506852227.7,47463,16.63,74288.3,10.47,-38.91,-39.29,0,*4F
1506852228.94,47464,16.63,74288.3,10.49,-39.23,-39.47,0,*46
1506852230.22,47465,16.63,74292.0,10.49,-39.59,-39.53,0,*4F
1506852231.43,47466,16.63,74292.8,10.47,-40.65,-41.03,0,*49
1506852232.64,47467,16.63,74290.8,10.47,-40.47,-40.73,0,*4E
1506852233.89,47468,16.63,74294.8,10.45,-38.17,-38.67,0,*43
1506852235.13,47469,16.63,74292.0,10.41,-38.73,-39.23,0,*45
1506852236.39,47470,16.63,74294.3,10.45,-39.65,-40.09,0,*49
1506852237.62,47471,16.63,74292.8,10.45,-39.85,-40.35,0,*49
1506852238.89,47472,16.63,74288.5,10.41,-39.91,-40.41,0,*48
1506852240.14,47473,16.63,74290.5,10.41,-39.53,-39.91,0,*44
1506852241.34,47474,16.63,74294.0,10.39,-40.65,-41.41,0,*45
1506852242.59,47475,16.63,74294.0,10.37,-38.85,-39.23,0,*40
1506852243.85,47476,16.63,74290.0,10.39,-39.23,-39.59,0,*4D
1506852245.14,47477,16.63,74288.3,10.37,-39.79,-40.21,0,*4C
1506852246.42,47478,16.63,74292.8,10.37,-37.63,-37.93,0,*4F
1506852247.7,47479,16.63,74292.3,10.37,-38.67,-39.29,0,*4A
1506852248.93,47480,16.63,74294.5,10.39,-41.61,-42.19,0,*45
1506852250.19,47481,16.63,74296.8,10.35,-39.71,-40.47,0,*4F
1506852251.39,47482,16.63,74294.0,10.33,-42.63,-42.89,0,*45
1506852252.61,47483,16.63,74296.3,10.29,-45.95,-46.41,0,*41
1506852253.81,47484,16.63,74292.5,10.25,-45.33,-45.67,0,*41
1506852255.0,47485,16.63,74294.3,10.25,-41.29,-41.61,0,*4D
1506852256.26,47486,16.63,74298.5,10.23,-39.79,-40.15,0,*40
1506852257.52,47487,16.63,74298.0,10.21,-39.15,-39.71,0,*45
1506852258.75,47488,16.63,74298.3,10.21,-39.97,-40.35,0,*4E
1506852260.0,47489,16.63,74296.8,10.21,-38.91,-39.71,0,*46
1506852261.26,47490,16.63,74300.5,10.21,-40.59,-40.97,0,*43
1506852262.49,47491,16.63,74292.8,10.21,-38.73,-39.15,0,*41
1506852263.74,47492,16.63,74296.8,10.25,-37.69,-37.99,0,*48
1506852264.95,47493,16.63,74294.8,10.21,-36.85,-37.27,0,*4B
1506852266.2,47494,16.63,74296.0,10.25,-37.21,-37.51,0,*46
1506852267.43,47495,16.63,74296.8,10.25,-36.43,-36.79,0,*49
1506852268.69,47496,16.63,74296.0,10.29,-37.09,-37.63,0,*43
1506852269.95,47497,16.63,74296.3,10.31,-37.27,-37.81,0,*4B
1506852271.2,47498,16.63,74298.3,10.31,-37.09,-37.45,0,*40
1506852272.43,47499,16.63,74298.5,10.33,-37.15,-37.51,0,*4B
1506852273.68,47500,16.63,74296.3,10.33,-37.99,-38.49,0,*48
1506852274.94,47501,16.63,74294.5,10.35,-37.99,-38.35,0,*44
1506852276.15,47502,16.63,74298.0,10.35,-38.97,-39.35,0,*47
1506852277.34,47503,16.63,74294.5,10.33,-38.35,-38.73,0,*4B
1506852278.6,47504,16.63,74292.3,10.35,-38.17,-38.49,0,*43
1506852279.83,47505,16.63,74294.8,10.37,-37.33,-37.87,0,*44
1506852281.08,47506,16.63,74292.0,10.37,-36.31,-36.79,0,*44
1506852282.32,47507,16.63,74294.8,10.39,-35.95,-36.73,0,*4C
1506852283.6,47508,16.63,74292.8,10.41,-36.91,-37.21,0,*4D
1506852284.84,47509,16.63,74296.8,10.45,-36.85,-37.15,0,*4A
1506852286.09,47510,16.63,74294.8,10.45,-36.61,-36.97,0,*43
1506852287.34,47511,16.63,74294.3,10.45,-37.93,-38.35,0,*48
1506852288.63,47512,16.63,74292.0,10.45,-37.21,-37.63,0,*4E
1506852289.88,47513,16.63,74296.0,10.45,-36.19,-36.37,0,*45
1506852291.14,47514,16.63,74290.5,10.49,-36.73,-37.09,0,*4E
1506852292.41,47515,16.63,74294.0,10.49,-36.37,-36.79,0,*49
1506852293.67,47516,16.63,74292.8,10.49,-37.75,-38.23,0,*4C
1506852294.88,47517,16.63,74292.5,10.51,-36.97,-37.33,0,*47
1506852296.1,47518,16.63,74294.5,10.51,-37.27,-37.69,0,*4D
1506852297.36,47519,16.63,74294.3,10.53,-36.25,-36.55,0,*43
1506852298.59,47520,16.63,74296.8,10.53,-38.55,-38.85,0,*43
1506852299.83,47521,16.63,74294.3,10.53,-37.87,-38.35,0,*49
1506852301.08,47522,16.63,74292.5,10.53,-36.73,-37.09,0,*40
1506852302.36,47523,16.63,74294.0,10.53,-37.39,-37.69,0,*48
1506852303.61,47524,16.63,74296.5,10.53,-37.27,-37.51,0,*4B
1506852304.84,47525,16.63,74296.3,10.55,-36.97,-37.21,0,*41
1506852306.08,47526,16.63,74298.0,10.57,-36.43,-36.67,0,*4A
1506852307.35,47527,16.63,74296.0,10.57,-36.49,-36.79,0,*4E
1506852308.61,47528,16.63,74292.3,10.57,-36.97,-37.21,0,*4E
1506852309.87,47529,16.63,74294.5,10.57,-37.21,-37.57,0,*42
1506852311.14,47530,16.63,74302.0,10.57,-37.93,-37.93,0,*4B
1506852312.42,47531,16.63,74298.0,10.61,-37.09,-37.21,0,*45
1506852313.62,47532,16.63,74298.5,10.59,-37.75,-38.05,0,*4F
1506852314.85,47533,16.63,74300.8,10.59,-37.33,-37.51,0,*42
1506852316.12,47534,16.63,74296.8,10.61,-37.63,-37.99,0,*4F
1506852317.41,47535,16.63,74294.8,10.61,-37.81,-38.23,0,*4C
1506852318.61,47536,16.63,74296.0,10.59,-39.09,-39.47,0,*49
1506852319.82,47537,16.63,74298.0,10.59,-38.85,-39.09,0,*47
1506852321.1,47538,16.63,74298.0,10.57,-37.63,-37.99,0,*46
1506852322.36,47539,16.63,74302.5,10.59,-40.59,-40.97,0,*4E
1506852323.59,47540,16.63,74300.5,10.55,-39.35,-39.71,0,*4E
1506852324.82,47541,16.63,74300.3,10.55,-38.11,-38.55,0,*4F
1506852326.1,47542,16.63,74302.0,10.57,-37.63,-37.93,0,*41
1506852327.35,47543,16.63,74300.0,10.57,-37.81,-38.17,0,*4F
1506852328.6,47544,16.63,74300.0,10.57,-37.75,-37.93,0,*40
1506852329.88,47545,16.63,74306.5,10.57,-37.63,-37.99,0,*4C
1506852331.14,47546,16.63,74300.5,10.57,-37.39,-37.75,0,*42
1506852332.41,47547,16.63,74300.8,10.61,-35.95,-36.49,0,*4C
1506852333.66,47548,16.63,74300.5,10.59,-37.69,-37.93,0,*4F
1506852334.89,47549,16.63,74296.3,10.61,-37.03,-37.33,0,*43
1506852336.16,47550,16.63,74302.0,10.61,-37.51,-37.99,0,*4C
1506852337.44,47551,16.63,74300.8,10.61,-37.09,-37.39,0,*4A
1506852338.68,47552,16.63,74300.5,10.61,-37.45,-37.69,0,*44
1506852339.88,47553,16.63,74298.8,10.67,-36.67,-37.03,0,*4E
1506852341.08,47554,16.63,74298.0,10.67,-38.17,-38.43,0,*4B
1506852342.31,47555,16.63,74302.5,10.63,-37.69,-38.17,0,*49
1506852343.54,47556,16.63,74296.8,10.67,-36.85,-37.21,0,*47
1506852344.79,47557,16.63,74298.8,10.67,-37.63,-37.99,0,*4C
1506852346.01,47558,16.63,74300.0,10.67,-38.61,-38.91,0,*49
1506852347.24,47559,16.63,74304.3,10.67,-37.99,-38.43,0,*4F
1506852348.46,47560,16.63,74300.8,10.67,-38.35,-38.79,0,*45
1506852349.65,47561,16.63,74302.8,10.67,-37.15,-37.45,0,*49
1506852350.9,47562,16.63,74302.5,10.67,-39.71,-39.97,0,*47
1506852352.12,47563,16.63,74300.0,10.63,-38.97,-39.41,0,*40
1506852353.35,47564,16.63,74300.8,10.63,-38.97,-39.15,0,*46
1506852354.55,47565,16.63,74300.5,10.63,-42.75,-43.15,0,*4B
1506852355.78,47566,16.63,74300.5,10.59,-41.29,-41.67,0,*4C
1506852357.01,47567,16.63,74296.8,10.55,-40.73,-41.55,0,*4E
1506852358.22,47568,16.63,74302.0,10.55,-40.91,-41.11,0,*4D
1506852359.45,47569,16.63,74296.3,10.53,-40.03,-40.53,0,*46
1506852360.68,47570,16.63,74298.8,10.51,-42.19,-43.01,0,*41
1506852361.96,47571,16.63,74292.3,10.49,-42.19,-42.57,0,*4B
1506852363.24,47572,16.63,74298.8,10.45,-46.07,-46.69,0,*46
1506852364.5,47573,16.63,74296.5,10.37,-45.33,-46.15,0,*4D
1506852365.77,47574,16.63,74298.8,10.35,-45.81,-46.49,0,*48
1506852366.98,47575,16.63,74298.0,10.29,-46.55,-47.31,0,*40
1506852368.21,47576,16.63,74296.8,10.25,-46.01,-46.49,0,*40
1506852369.46,47577,16.63,74294.0,10.21,-44.67,-45.07,0,*4E
1506852370.75,47578,16.63,74298.3,10.15,-43.09,-43.67,0,*49
1506852371.98,47579,16.63,74298.0,10.15,-41.61,-42.25,0,*43
1506852373.23,47580,16.63,74294.3,10.13,-42.83,-43.29,0,*41
1506852374.52,47581,16.63,74292.5,10.11,-42.31,-42.95,0,*4D
1506852375.78,47582,16.56,74292.0,10.11,-41.99,-42.57,0,*41
1506852377.03,47583,16.63,74288.5,10.07,-41.99,-42.57,0,*47
1506852378.26,47584,16.63,74292.0,10.09,-39.09,-39.53,0,*40
1506852379.49,47585,16.63,74290.3,10.07,-38.85,-39.47,0,*4F
1506852380.74,47586,16.63,74292.5,10.11,-38.91,-39.35,0,*4B
1506852382.0,47587,16.56,74288.0,10.11,-38.23,-38.61,0,*43
1506852383.23,47588,16.63,74294.5,10.13,-42.51,-43.09,0,*44
1506852384.46,47589,16.63,74298.5,10.11,-40.65,-41.11,0,*49
1506852385.72,47590,16.56,74294.8,10.11,-42.31,-42.89,0,*40
1506852386.96,47591,16.56,74296.3,10.09,-41.11,-41.67,0,*4A
1506852388.16,47592,16.63,74300.5,10.09,-41.73,-42.51,0,*4B
1506852389.42,47593,16.56,74298.3,10.07,-39.41,-39.85,0,*4F
1506852390.68,47594,16.63,74296.8,10.09,-39.59,-39.97,0,*4C
1506852391.94,47595,16.56,74296.5,10.07,-40.41,-40.73,0,*40
1506852393.16,47596,16.63,74302.8,10.09,-38.91,-39.35,0,*43
1506852394.42,47597,16.56,74300.0,10.07,-39.15,-39.47,0,*44
1506852395.65,47598,16.56,74296.0,10.09,-41.11,-41.35,0,*44
1506852396.93,47599,16.63,74302.3,10.07,-39.03,-39.41,0,*4B
1506852398.16,47600,16.63,74298.5,10.09,-38.23,-38.61,0,*46
1506852399.4,47601,16.56,74298.5,10.09,-37.87,-38.29,0,*4A
1506852400.63,47602,16.56,74300.0,10.09,-38.55,-38.79,0,*4C
1506852401.89,47603,16.56,74296.3,10.11,-37.39,-37.87,0,*4F
1506852403.09,47604,16.56,74292.0,10.13,-39.35,-39.85,0,*44
1506852404.36,47605,16.56,74294.3,10.11,-37.93,-38.35,0,*4F
1506852405.61,47606,16.63,74296.8,10.13,-39.29,-39.71,0,*40
1506852406.83,47607,16.63,74296.0,10.13,-38.29,-38.73,0,*43
1506852408.07,47608,16.63,74296.3,10.17,-37.87,-38.29,0,*4C
1506852409.3,47609,16.63,74298.5,10.17,-38.05,-38.49,0,*4E
1506852410.53,47610,16.56,74294.3,10.17,-38.43,-38.79,0,*47
1506852411.78,47611,16.56,74292.8,10.17,-38.67,-39.15,0,*4B
1506852412.98,47612,16.56,74298.0,10.17,-38.43,-38.85,0,*46
1506852414.21,47613,16.56,74296.3,10.21,-38.61,-38.91,0,*47
1506852415.44,47614,16.56,74302.8,10.23,-37.75,-38.05,0,*45
1506852416.67,47615,16.56,74304.3,10.23,-38.55,-39.09,0,*44
1506852417.87,47616,16.56,74302.3,10.25,-36.97,-37.33,0,*46
1506852419.1,47617,16.63,74304.3,10.25,-38.17,-38.49,0,*43
1506852420.35,47618,16.63,74304.3,10.27,-37.33,-37.69,0,*4A
1506852421.61,47619,16.56,74304.8,10.25,-37.21,-37.51,0,*41
1506852422.85,47620,16.56,74300.0,10.27,-38.73,-39.03,0,*48
1506852424.11,47621,16.56,74300.8,10.27,-37.15,-37.39,0,*41
1506852425.31,47622,16.56,74298.0,10.29,-37.15,-37.45,0,*47
1506852426.58,47623,16.56,74300.0,10.31,-37.87,-38.23,0,*4B
1506852427.83,47624,16.56,74302.3,10.31,-37.57,-37.63,0,*4A
1506852429.06,47625,16.56,74302.8,10.35,-37.03,-37.33,0,*4B
1506852430.31,47626,16.56,74302.5,10.35,-37.33,-37.69,0,*44
1506852431.54,47627,16.56,74302.8,10.35,-36.67,-37.15,0,*4E
1506852432.82,47628,16.56,74300.0,10.35,-37.21,-37.69,0,*49
1506852434.1,47629,16.56,74302.8,10.35,-37.51,-37.39,0,*4A
1506852435.35,47630,16.56,74296.8,10.37,-38.11,-38.61,0,*49
1506852436.63,47631,16.56,74302.8,10.37,-37.93,-38.23,0,*4B
1506852437.87,47632,16.56,74306.8,10.39,-41.23,-41.87,0,*4C
1506852439.1,47633,16.56,74306.5,10.35,-41.11,-41.41,0,*4A
1506852440.35,47634,16.56,74300.3,10.33,-41.93,-42.45,0,*46
1506852441.57,47635,16.56,74300.0,10.29,-42.45,-43.01,0,*45
1506852442.8,47636,16.56,74296.5,10.29,-39.29,-39.65,0,*4F
1506852444.03,47637,16.56,74302.3,10.29,-39.23,-39.85,0,*4A
1506852445.25,47638,16.56,74294.3,10.29,-39.97,-40.47,0,*4A
1506852446.5,47639,16.56,74296.8,10.29,-40.21,-40.59,0,*47
1506852447.71,47640,16.56,74296.8,10.29,-39.47,-39.65,0,*46
1506852448.94,47641,16.56,74298.0,10.25,-38.35,-38.91,0,*45
1506852450.19,47642,16.56,74298.5,10.27,-39.71,-40.03,0,*41
1506852451.42,47643,16.56,74298.3,10.27,-38.17,-38.35,0,*4B
1506852452.65,47644,16.56,74294.5,10.27,-37.75,-38.17,0,*47
1506852453.85,47645,16.56,74296.5,10.25,-40.03,-40.47,0,*4F
1506852455.08,47646,16.56,74292.5,10.25,-40.09,-40.53,0,*43
1506852456.28,47647,16.56,74294.0,10.25,-39.65,-40.03,0,*43
1506852457.49,47648,16.56,74294.8,10.25,-39.47,-39.85,0,*4C
1506852458.72,47649,16.56,74298.8,10.25,-38.29,-38.35,0,*4E
1506852459.92,47650,16.56,74296.0,10.25,-37.33,-37.75,0,*49
1506852461.2,47651,16.56,74294.0,10.27,-38.49,-38.91,0,*4D
1506852462.48,47652,16.56,74296.3,10.27,-38.91,-39.29,0,*49
1506852463.7,47653,16.56,74298.0,10.25,-38.67,-39.09,0,*41
1506852464.98,47654,16.56,74302.0,10.27,-39.15,-39.53,0,*4F
1506852466.18,47655,16.56,74298.3,10.25,-39.47,-39.85,0,*40
1506852467.38,47656,16.56,74298.5,10.25,-38.73,-39.09,0,*41
1506852468.64,47657,16.56,74296.0,10.27,-38.85,-39.15,0,*46
1506852469.87,47658,16.56,74298.5,10.25,-38.49,-38.73,0,*4A
1506852471.12,47659,16.56,74298.0,10.27,-37.57,-37.93,0,*48
1506852472.38,47660,16.56,74294.5,10.27,-37.51,-37.87,0,*41
1506852473.64,47661,16.56,74298.3,10.27,-37.21,-37.57,0,*4A
1506852474.88,47662,16.56,74292.3,10.29,-37.87,-38.29,0,*4D
1506852476.11,47663,16.56,74298.8,10.29,-37.33,-37.51,0,*43
1506852477.37,47664,16.56,74296.8,10.31,-37.39,-37.75,0,*41
1506852478.6,47665,16.56,74292.8,10.31,-36.85,-37.03,0,*47
1506852479.85,47666,16.56,74296.0,10.31,-38.55,-38.91,0,*43
1506852481.1,47667,16.56,74302.3,10.31,-38.73,-39.03,0,*4C
1506852482.38,47668,16.56,74300.0,10.31,-39.53,-39.79,0,*4D
1506852483.61,47669,16.56,74302.8,10.29,-39.41,-39.85,0,*45
1506852484.89,47670,16.56,74294.0,10.31,-38.91,-39.23,0,*44
1506852486.13,47671,16.56,74296.5,10.31,-38.97,-39.53,0,*44
1506852487.39,47672,16.56,74300.0,10.29,-38.29,-38.79,0,*42
1506852488.62,47673,16.56,74300.8,10.31,-37.87,-38.35,0,*49
1506852489.88,47674,16.56,74302.8,10.29,-37.69,-38.11,0,*41
1506852491.13,47675,16.56,74302.3,10.31,-37.39,-37.75,0,*41
1506852492.36,47676,16.56,74294.3,10.31,-37.03,-37.27,0,*4C
1506852493.58,47677,16.56,74296.8,10.31,-37.75,-38.05,0,*43
1506852494.81,47678,16.56,74300.8,10.33,-37.57,-37.81,0,*4D
1506852496.07,47679,16.56,74302.3,10.35,-37.15,-37.39,0,*4F
1506852497.29,47680,16.56,74292.5,10.33,-37.57,-37.93,0,*49